sat.trackr.live / text

‹ back to catalog

COSMOS 2401

NORAD 27869 · 2003-037B

PAYLOAD ACTIVE UNKNOWN

§ Identity

Operator
Country
CIS
Launch date
2003-08-19
Launch site
PLMSC
Launch vehicle
Mass (kg)
RCS (m²)
0.96

External: N2YO · Heavens-Above · Gunter

§ Orbital elements

Epoch: 2026-09-19T23:22:47.926848Z

Period
115.62 min
Inclination
82.4650°
Eccentricity
0.0021703
Mean motion
12.45504597 rev/d
Perigee alt
1,466.3 km
Apogee alt
1,500.4 km
Semi-major
7,861.5 km
B*
2.8597e-4
RAAN
266.7467°
Arg perigee
200.3241°
Mean anomaly
159.6979°
Rev number
4,957

§ Raw data

COSMOS 24011 27869U 03037B   26262.97416582  .00000051  00000+0  28597-3 0  99942 27869  82.4650 266.7467 0021703 200.3241 159.6979 12.45504597 49575

JSON: /api/v1/satellites/27869 · /tle

For live sub-satellite position, see the globe view (requires WebGL).

§ Visibility from observer

Set your observer location to see the next 7 days of passes ≥ 10°. The values pass through the URL so the page stays shareable.

No JS? Fill the form by hand. The geolocation button needs JavaScript.